Chornomorsk

Ukraine / Odesa District     46˚18′12″N   30˚39′51″E
temp.,
°C
wind,
m/s
gust,
m/s
humid.,
%
clouds,
%
prec.,
mm/h
press.,
hPa
HPBL,
m
29 november, sun
sun2900:00+6˚n4481100 0.0 1019329
03:00+6˚nne338099 0.0 1019359
06:00+6˚n1181100 0.0 1019330
09:00+6˚n4384100 0.0 1020277
12:00+6˚n3383100 0.0 1020311
15:00+7˚nne2279100 0.0 1020438
18:00+7˚ne3377100 0.0 1020475
21:00+7˚nne4477100 0.0 1021481
30 november, mon
mon3000:00+7˚nne6681100 0.0 1021430
03:00+7˚n6680100 0.0 1021368
06:00+6˚n7883100 0.0 1020454
09:00+6˚nne91091100 2.2 1021451
12:00+6˚nne91092100 3.6 1021467
15:00+6˚n8991100 5.1 1021453
18:00+6˚n91191100 0.1 1021448
21:00+6˚n101290100 0.1 1022498
1 december, tue
tue100:00+5˚n101289100 0.1 1022504
03:00+5˚n101289100 0.1 1022488
06:00+5˚n91088100 0.0 1021491
09:00+5˚n91088100 0.0 1022526
12:00+6˚nne8987100 0.1 1022537
15:00+7˚nne8883100 0.4 1021668
18:00+7˚ne8879100 0.3 1021794
21:00+7˚ne8878100 0.6 1022837
2 december, wed
wed200:00+7˚ne7882100 0.3 1022711
03:00+7˚ne7883100 0.8 1022659
06:00+7˚ne7782100 0.3 1021623
09:00+7˚ne778698 0.5 1021545
12:00+7˚ne7786100 0.4 1022588
15:00+7˚ne7889100 1.9 1021542
18:00+7˚nne8890100 3.4 1021489
21:00+7˚n8992100 8.1 1021453
3 december, thu
thu300:00+7˚n7892100 1.3 1022397
03:00+7˚nw899397 1.5 1022327
06:00+6˚wnw7891100 0.1 1022343
09:00+5˚w668997 0.1 1023414
12:00+6˚wsw557481 0.0 1023698
15:00+6˚sw446553 0.0 1023684
18:00+7˚sw23670 0.0 1023551
21:00+7˚sse116932 0.0 1023297